Home > Weather > Chernobyl > Past weeks

Flag for Ukraine Weather for the Past 2 Weeks in Chernobyl, Ukraine

Now
36 °F

Low clouds.


Feels Like: 25 °F
Forecast: 36 / 42 °F
Wind: 17 mph from South

Location: Hostomel

Current Time: Feb 10, 2016 at 9:05:55 AM

Latest Report: Feb 10, 2016 at 8:00 AM


Visibility: 5 mi

Pressure: 29.80 "Hg

Humidity: 93%

Dew point: 34 °F

Location of ChernobylLocation

Historic Weather in Chernobyl — Graph

°F

Chernobyl Temperature Yesterday

Maximum temperature yesterday: 37 °F (at 11:00 AM)
Minimum temperature yesterday: 34 °F (at 12:00 AM)
Average temperature yesterday: 35 °F

High & Low Weather Summary for the Past Weeks

 TemperatureHumidityPressure
High48 °F (Feb 3, 11:00 AM)100% (Jan 27, 3:00 AM)30.30 "Hg (Jan 27, 3:00 AM)
Low19 °F (Jan 26, 8:00 AM)48% (Feb 6, 1:00 PM)29.53 "Hg (Jan 31, 3:00 PM)
Average35 °F81%29.99 "Hg
* Reported Jan 26 8:00 AM — Feb 10 8:00 AM, Chernobyl, Weather by CustomWeather, © 2016

Note: Actual official high and low records may vary slightly from our data, if they occured in-between our weather recording intervals... More about our weather records

Advertising

Chernobyl Weather History for the Previous 24 Hours

 ConditionsComfort  
Time TempWeatherWind HumidityBarometerVisibility
8:00 AM
Wed, Feb 10
36 °FLow clouds.17 mph93%29.80 "Hg5 mi
7:00 AM36 °FLow clouds.13 mph93%29.83 "Hg4 mi
6:00 AM36 °FChilly.15 mph93%29.83 "Hg2 mi
5:00 AM36 °FFog.15 mph93%29.83 "Hg2 mi
4:00 AM36 °FFog.13 mph93%29.86 "Hg2 mi
3:00 AM36 °FFog.13 mph93%29.86 "Hg2 mi
2:00 AM36 °FChilly.15 mph93%29.86 "Hg2 mi
1:00 AM36 °FChilly.15 mph93%29.86 "Hg3 mi
12:00 AM37 °FChilly.15 mph87%29.89 "Hg4 mi
11:00 PM
Tue, Feb 9
36 °FChilly.15 mph93%29.89 "Hg4 mi
10:00 PM36 °FChilly.13 mph93%29.89 "Hg6 mi
9:00 PM36 °FChilly.15 mph87%29.89 "Hg6 mi
8:00 PM36 °FClear.13 mph87%29.89 "Hg5 mi
7:00 PM36 °FClear.13 mph87%29.92 "Hg5 mi
6:30 PM36 °FClear.13 mph87%29.92 "Hg10 mi
6:00 PM36 °FPassing clouds.13 mph87%29.89 "HgN/A
5:30 PM36 °FPassing clouds.15 mph87%29.92 "HgN/A
5:00 PM36 °FPartly sunny.15 mph87%29.92 "HgN/A
4:30 PM36 °FPartly sunny.15 mph87%29.92 "HgN/A
4:00 PM36 °FPartly sunny.15 mph93%29.92 "HgN/A
3:30 PM36 °FPartly sunny.17 mph93%29.92 "HgN/A
3:00 PM36 °FPartly sunny.17 mph93%29.92 "HgN/A
2:30 PM36 °FSprinkles. Partly sunny.17 mph93%29.92 "HgN/A
2:00 PM36 °FSprinkles. Partly sunny.15 mph93%29.92 "Hg3 mi
1:30 PM36 °FSprinkles. Partly sunny.15 mph93%29.95 "Hg4 mi
12:30 PM37 °FSprinkles. Partly sunny.17 mph81%29.95 "HgN/A
12:00 PM37 °FPartly sunny.15 mph75%29.95 "HgN/A
11:30 AM37 °FPartly sunny.17 mph75%29.95 "HgN/A
11:00 AM37 °FPartly sunny.17 mph75%29.98 "HgN/A
10:00 AM36 °FPartly sunny.15 mph81%29.98 "HgN/A
9:30 AM36 °FPartly sunny.17 mph81%29.98 "HgN/A
9:00 AM36 °FPartly sunny.17 mph81%29.98 "HgN/A
Weather by CustomWeather, © 2016

See weather overviewHow to use our weather pages